Date,TemperatureHighF,TemperatureAvgF,TemperatureLowF,DewpointHighF,DewpointAvgF,DewpointLowF,HumidityHigh,HumidityAvg,HumidityLow,PressureMaxIn,PressureMinIn,WindSpeedMaxMPH,WindSpeedAvgMPH,GustSpeedMaxMPH,PrecipitationSumIn
2013-1-1,43,34,29,32,29,27,91,84,56,0.00,40.00,6,2,8,0.00
2013-1-2,39,31,28,30,27,26,92,88,66,0.00,40.00,8,4,11,0.00
2013-1-3,43,32,28,33,28,25,91,85,59,0.00,40.00,8,2,11,0.00
2013-1-4,53,40,33,38,35,31,92,84,52,0.00,40.00,6,2,8,0.00
2013-1-5,44,38,34,38,35,32,92,89,79,0.00,40.00,8,2,10,0.00
2013-1-6,48,40,37,38,36,35,91,86,61,0.00,40.00,6,1,9,0.00
2013-1-7,50,46,42,45,42,34,90,83,68,0.00,40.00,11,2,17,0.00
2013-1-8,54,47,41,44,41,39,91,80,60,0.00,40.00,6,2,7,0.00
2013-1-9,50,40,32,41,36,30,91,85,50,0.00,40.00,7,2,16,0.00
2013-1-10,38,34,32,33,31,30,92,90,83,0.00,40.00,6,2,11,0.00
2013-1-11,43,33,28,33,29,24,93,86,48,0.00,40.00,6,1,6,0.00
2013-1-12,40,29,24,29,25,22,92,86,52,0.00,40.00,5,2,6,0.00
2013-1-13,32,29,27,26,22,20,90,78,60,0.00,40.00,5,2,6,0.00
2013-1-14,39,30,26,26,23,22,90,77,51,0.00,40.00,4,2,6,0.00
2013-1-15,46,30,22,31,25,19,90,82,43,0.00,40.00,6,2,8,0.00
2013-1-16,35,33,31,31,30,29,93,89,82,0.00,40.00,6,2,8,0.00
2013-1-17,36,32,30,31,29,28,93,90,80,0.00,40.00,8,4,11,0.00
2013-1-18,48,33,27,35,29,26,93,87,59,0.00,40.00,8,4,11,0.00
2013-1-19,47,32,27,33,28,25,93,88,56,0.00,40.00,8,4,9,0.00
2013-1-20,40,30,27,31,27,25,93,89,65,0.00,40.00,10,5,12,0.00
2013-1-21,45,32,24,33,27,21,93,84,60,0.00,40.00,8,4,9,0.00
2013-1-22,44,34,24,32,28,22,93,79,59,0.00,40.00,8,4,10,0.00
2013-1-23,38,35,32,36,31,28,92,86,79,0.00,40.00,6,2,8,0.00
2013-1-24,51,41,36,42,38,33,92,87,67,0.00,40.00,5,1,7,0.00
2013-1-25,50,45,39,47,43,35,91,91,90,0.00,40.00,5,1,5,0.00
2013-1-26,43,39,35,39,36,33,91,89,79,0.00,40.00,10,2,11,0.00
2013-1-27,41,39,37,37,35,33,91,87,74,0.00,40.00,6,2,9,0.00
2013-1-28,41,40,38,38,37,35,91,89,87,0.00,40.00,5,2,8,0.00
2013-1-29,47,42,40,42,39,38,91,88,81,0.00,40.00,3,1,6,0.00
2013-1-30,48,42,37,42,39,35,92,88,76,0.00,40.00,4,1,4,0.00
2013-1-31,52,43,37,41,37,34,91,80,52,0.00,40.00,7,1,9,0.00
2013-2-1,49,41,37,38,36,35,92,84,63,0.00,40.00,4,2,6,0.00
2013-2-2,51,41,36,42,37,34,91,85,60,0.00,40.00,4,1,4,0.00
2013-2-3,46,43,40,40,38,36,92,85,68,0.00,40.00,6,1,7,0.00
2013-2-4,54,43,41,40,38,34,90,84,47,0.00,40.00,3,1,4,0.00
2013-2-5,50,44,39,42,39,35,91,82,59,0.00,40.00,5,2,8,0.00
2013-2-6,53,45,38,38,34,28,91,69,39,0.00,40.00,8,2,11,0.00
2013-2-7,47,39,34,38,34,30,92,85,52,0.00,40.00,8,2,11,0.00
2013-2-8,45,37,31,35,31,24,91,80,44,0.00,40.00,6,1,9,0.00
2013-2-9,45,37,31,37,32,28,91,81,51,0.00,40.00,4,1,4,0.00
2013-2-10,45,41,37,38,34,30,91,78,58,0.00,40.00,4,1,5,0.00
2013-2-11,50,42,38,39,34,27,89,74,43,0.00,40.00,8,1,8,0.00
2013-2-12,52,45,42,43,40,39,91,85,63,0.00,40.00,4,1,6,0.00
2013-2-13,51,46,42,42,41,37,90,82,60,0.00,40.00,4,1,5,0.00
2013-2-14,61,46,39,41,38,34,91,76,38,0.00,40.00,6,2,8,0.00
2013-2-15,54,43,37,39,37,35,92,82,53,0.00,40.00,6,3,7,0.00
2013-2-16,49,40,35,41,36,33,93,89,63,0.00,40.00,5,1,6,0.00
2013-2-17,49,38,30,40,31,21,92,77,34,0.00,40.00,4,1,8,0.00
2013-2-18,46,34,29,32,28,25,91,82,45,0.00,40.00,6,2,8,0.00
2013-2-19,48,38,34,37,33,32,92,85,55,0.00,40.00,6,1,7,0.00
2013-2-20,47,39,33,38,33,26,92,82,44,0.00,40.00,7,2,9,0.00
2013-2-21,44,40,37,37,36,33,92,86,65,0.00,40.00,6,1,9,0.00
2013-2-22,47,42,37,40,35,30,91,76,52,0.00,40.00,9,3,16,0.00
2013-2-23,45,37,32,36,33,30,92,86,62,0.00,40.00,7,2,10,0.00
2013-2-24,50,36,31,36,31,29,93,83,46,0.00,40.00,6,2,8,0.00
2013-2-25,46,40,33,38,34,26,91,80,46,0.00,40.00,9,2,13,0.00
2013-2-26,53,37,30,37,31,24,93,80,38,0.00,40.00,6,2,7,0.00
2013-2-27,52,42,34,43,36,31,91,79,49,0.00,40.00,6,2,7,0.00
2013-2-28,56,49,44,49,45,42,91,86,65,0.00,40.00,6,1,8,0.00
2013-3-1,63,50,44,47,44,39,91,79,42,0.00,40.00,5,2,7,0.00
2013-3-2,54,48,44,46,44,41,91,84,65,0.00,40.00,7,2,8,0.00
2013-3-3,52,41,30,43,30,21,92,69,30,0.00,40.00,9,2,14,0.00
2013-3-4,59,39,28,37,30,26,93,76,31,0.00,40.00,7,3,8,0.00
2013-3-5,44,40,34,41,37,32,93,91,88,0.00,40.00,6,2,7,0.00
2013-3-6,51,42,38,40,36,31,92,83,49,0.00,40.00,9,2,14,0.00
2013-3-7,52,42,31,37,35,29,93,78,42,0.00,40.00,5,2,8,0.00
2013-3-8,55,37,32,34,32,26,93,82,35,0.00,40.00,7,2,9,0.00
2013-3-9,61,41,31,36,32,21,93,76,22,0.00,40.00,8,3,9,0.00
2013-3-10,63,46,29,45,34,21,93,67,20,0.00,40.00,6,3,8,0.00
2013-3-11,65,52,46,46,44,39,91,77,40,0.00,40.00,6,2,6,0.00
2013-3-12,60,49,43,46,43,40,93,81,51,0.00,40.00,6,2,8,0.00
2013-3-13,70,53,45,48,44,37,90,75,32,0.00,40.00,6,1,7,0.00
2013-3-14,59,50,44,46,42,34,92,78,41,0.00,40.00,10,2,15,0.00
2013-3-15,66,52,43,46,43,37,91,74,37,0.00,40.00,9,1,12,0.00
2013-3-16,49,45,42,43,41,36,91,85,60,0.00,40.00,11,2,12,0.00
2013-3-17,51,40,33,39,33,24,93,79,37,0.00,40.00,6,1,9,0.00
2013-3-18,59,40,30,35,31,26,94,75,29,0.00,40.00,6,2,9,0.00
2013-3-19,54,45,38,47,39,34,92,82,51,0.00,40.00,5,2,8,0.00
2013-3-20,52,46,36,47,41,33,92,82,60,0.00,40.00,11,3,16,0.00
2013-3-21,48,38,32,38,33,30,93,84,54,0.00,40.00,7,2,9,0.00
2013-3-22,47,37,32,34,30,22,93,78,39,0.00,40.00,9,2,12,0.00
2013-3-23,52,38,30,32,29,20,93,75,29,0.00,40.00,8,2,11,0.00
2013-3-24,57,40,30,38,32,28,92,74,36,0.00,40.00,6,2,9,0.00
2013-3-25,56,44,36,43,37,33,93,77,43,0.00,40.00,6,2,8,0.00
2013-3-26,53,46,42,41,39,36,92,78,53,0.00,40.00,5,1,7,0.00
2013-3-27,62,48,42,47,42,38,92,81,42,0.00,40.00,6,2,8,0.00
2013-3-28,63,51,47,47,44,37,92,79,40,0.00,40.00,8,2,12,0.00
2013-3-29,71,54,47,48,45,38,91,75,31,0.00,40.00,8,2,11,0.00
2013-3-30,78,55,45,51,44,-100,93,74,30,0.00,40.00,7,3,11,0.00
2013-3-31,69,54,45,49,45,41,91,76,36,0.00,40.00,9,3,11,0.00
2013-4-1,60,53,50,49,47,42,91,81,52,0.00,40.00,5,1,9,0.00
2013-4-2,70,52,45,47,43,34,91,75,27,0.00,40.00,6,2,9,0.00
2013-4-3,69,52,42,52,44,40,93,77,38,0.00,40.00,6,2,7,0.00
2013-4-4,58,54,49,54,50,46,91,87,77,0.00,40.00,7,2,12,0.00
2013-4-5,57,51,48,49,46,43,92,85,60,0.00,40.00,6,2,8,0.00
2013-4-6,54,49,47,46,44,38,92,83,56,0.00,40.00,8,2,11,0.00
2013-4-7,50,45,39,42,39,36,91,80,64,0.00,40.00,9,3,17,0.00
2013-4-8,52,43,37,42,38,34,93,81,52,0.00,40.00,6,1,9,0.00
2013-4-9,62,46,39,43,38,31,93,76,32,0.00,40.00,5,2,6,0.00
2013-4-10,59,46,38,48,41,36,92,82,46,0.00,40.00,7,2,9,0.00
2013-4-11,58,44,34,40,34,28,93,72,34,0.00,40.00,8,2,12,0.00
2013-4-12,61,44,33,40,33,29,94,70,35,0.00,40.00,8,4,11,0.00
2013-4-13,50,43,32,42,34,28,92,73,44,0.00,40.00,8,2,9,0.00
2013-4-14,49,39,31,37,33,27,93,79,42,0.00,40.00,8,2,9,0.00
2013-4-15,48,41,38,38,36,31,92,83,58,0.00,40.00,11,2,13,0.00
2013-4-16,57,42,36,41,35,27,93,80,32,0.00,40.00,9,2,12,0.00
2013-4-17,59,44,36,40,35,23,93,76,26,0.00,40.00,5,1,9,0.00
2013-4-18,65,49,41,45,39,31,90,73,33,0.00,40.00,5,1,8,0.00
2013-4-19,56,50,46,49,45,41,91,83,67,0.00,40.00,6,2,9,0.00
2013-4-20,65,50,44,45,41,32,92,74,31,0.00,40.00,9,1,12,0.00
2013-4-21,61,51,44,47,42,37,89,73,43,0.00,40.00,4,2,6,0.00
2013-4-22,67,52,42,45,37,28,85,61,28,0.00,40.00,11,3,15,0.00
2013-4-23,69,50,33,35,28,13,95,54,12,0.00,40.00,10,4,13,0.00
2013-4-24,76,56,37,40,34,27,85,51,19,0.00,40.00,11,4,14,0.00
2013-4-25,77,56,38,44,38,32,91,58,21,0.00,40.00,8,4,11,0.00
2013-4-26,82,60,41,45,40,25,91,57,13,0.00,40.00,7,3,11,0.00
2013-4-27,78,58,41,45,36,25,93,54,18,0.00,40.00,9,3,12,0.00
2013-4-28,68,52,39,45,40,36,91,67,33,0.00,40.00,8,2,10,0.00
2013-4-29,64,54,42,47,40,28,84,63,30,0.00,40.00,8,3,11,0.00
2013-4-30,57,46,32,34,28,22,90,53,28,0.00,40.00,8,3,12,0.00
2013-5-1,69,49,31,40,32,28,92,60,26,0.00,40.00,8,3,12,0.00
2013-5-2,79,57,37,40,36,29,95,55,17,0.00,40.00,9,4,12,0.00
2013-5-3,77,58,40,45,39,35,90,56,22,0.00,40.00,9,4,14,0.00
2013-5-4,83,63,42,45,37,28,91,49,15,0.00,40.00,16,5,22,0.00
2013-5-5,89,66,46,45,39,34,74,42,17,0.00,40.00,16,5,24,0.00
2013-5-6,79,60,44,45,42,37,90,57,27,0.00,40.00,10,3,18,0.00
2013-5-7,75,58,43,44,42,37,93,61,31,0.00,40.00,9,2,12,0.00
2013-5-8,76,58,45,49,44,39,90,63,28,0.00,40.00,9,2,12,0.00
2013-5-9,80,60,44,51,46,42,93,65,28,0.00,40.00,7,2,11,0.00
2013-5-10,85,62,46,50,45,-100,92,61,29,0.00,40.00,8,2,14,0.00
2013-5-11,87,66,49,54,47,-100,90,59,25,0.00,40.00,6,2,8,0.00
2013-5-12,78,62,51,54,49,41,92,67,29,0.00,40.00,9,3,12,0.00
2013-5-13,66,58,46,53,47,36,91,70,38,0.00,40.00,10,2,16,0.00
2013-5-14,68,54,41,44,37,24,92,60,19,0.00,40.00,8,2,12,0.00
2013-5-15,64,51,42,48,41,36,88,69,41,0.00,40.00,5,1,6,0.00
2013-5-16,61,49,49,49,27,-100,92,76,48,0.00,40.00,9,2,12,0.00
2013-5-17,61,52,46,48,39,-100,91,72,41,0.00,40.00,9,2,11,0.00
2013-5-18,58,51,46,47,45,42,91,79,54,0.00,40.00,8,2,11,0.00
2013-5-19,67,55,44,49,44,34,91,70,30,0.00,40.00,6,2,9,0.00
2013-5-20,75,53,39,42,40,35,92,65,28,0.00,40.00,9,4,10,0.00
2013-5-21,53,46,39,46,41,36,92,82,66,0.00,40.00,9,3,12,0.00
2013-5-22,49,43,39,41,37,34,92,80,66,0.00,40.00,11,3,17,0.00
2013-5-23,56,47,40,45,39,32,92,77,42,0.00,40.00,8,2,11,0.00
2013-5-24,61,50,45,44,40,34,91,69,39,0.00,40.00,11,2,14,0.00
2013-5-25,70,52,37,49,40,32,93,68,28,0.00,40.00,8,2,12,0.00
2013-5-26,64,54,47,49,46,38,91,77,41,0.00,40.00,9,2,14,0.00
2013-5-27,63,54,47,51,47,43,91,79,53,0.00,40.00,11,3,21,0.00
2013-5-28,64,54,49,49,45,38,90,74,39,0.00,40.00,8,2,12,0.00
2013-5-29,60,53,47,49,45,39,91,75,50,0.00,40.00,9,3,18,0.00
2013-5-30,60,51,46,45,40,33,90,69,38,0.00,40.00,7,2,9,0.00
2013-5-31,70,52,41,45,41,35,91,70,29,0.00,40.00,6,2,9,0.00
2013-6-1,79,57,43,53,44,38,93,67,26,0.00,40.00,8,3,10,0.00
2013-6-2,71,56,47,50,46,39,91,74,32,0.00,40.00,8,1,12,0.00
2013-6-3,77,58,44,48,43,36,92,65,26,0.00,40.00,11,2,13,0.00
2013-6-4,82,61,45,47,43,35,89,59,19,0.00,40.00,9,4,11,0.00
2013-6-5,86,66,49,54,47,42,87,57,23,0.00,40.00,8,4,11,0.00
2013-6-6,84,66,52,55,50,41,91,63,23,0.00,40.00,11,2,14,0.00
2013-6-7,84,65,49,55,47,36,91,59,20,0.00,40.00,9,2,11,0.00
2013-6-8,82,64,50,54,45,30,92,59,15,0.00,40.00,8,2,11,0.00
2013-6-9,76,62,49,47,43,34,87,54,23,0.00,40.00,9,3,13,0.00
2013-6-10,74,57,45,47,40,33,91,59,24,0.00,40.00,9,2,12,0.00
2013-6-11,63,55,49,46,41,37,84,62,38,0.00,40.00,6,2,7,0.00
2013-6-12,63,53,45,44,41,37,92,66,40,0.00,40.00,11,2,12,0.00
2013-6-13,61,52,45,48,44,41,91,76,52,0.00,40.00,8,2,12,0.00
2013-6-14,73,52,42,47,42,35,94,75,27,0.00,40.00,7,2,11,0.00
2013-6-15,81,57,43,47,44,38,92,67,27,0.00,40.00,8,2,12,0.00
2013-6-16,75,55,44,47,44,38,92,71,29,0.00,40.00,8,2,12,0.00
2013-6-17,76,57,47,47,45,41,90,67,29,0.00,40.00,8,3,13,0.00
2013-6-18,67,55,45,53,46,37,92,73,35,0.00,40.00,7,2,10,0.00
2013-6-19,63,54,49,48,46,38,92,75,44,0.00,40.00,8,2,12,0.00
2013-6-20,63,52,50,49,46,41,91,82,47,0.00,40.00,7,1,11,0.00
2013-6-22,78,65,49,47,44,40,77,50,26,0.00,40.00,6,2,10,0.00
2013-6-23,72,62,56,60,52,48,90,70,44,0.00,40.00,6,2,9,0.00
2013-6-24,65,56,52,55,51,44,91,82,46,0.00,40.00,4,1,6,0.00
2013-6-25,67,59,55,56,54,52,91,84,60,0.00,40.00,7,2,10,0.00
2013-6-26,70,62,57,57,54,50,91,78,48,0.00,40.00,6,1,6,0.00
2013-6-27,75,62,58,58,56,53,90,80,48,0.00,40.00,4,1,6,0.00
2013-6-28,87,64,55,58,54,48,91,74,26,0.00,40.00,3,1,5,0.00
2013-6-29,90,61,55,56,53,49,90,78,25,0.00,40.00,5,1,6,0.00
2013-6-30,94,70,57,59,55,53,88,65,28,0.00,40.00,7,3,10,0.00
2013-7-1,92,70,57,65,58,52,90,70,32,0.00,40.00,6,1,7,0.00
2013-7-2,94,68,59,63,59,56,90,74,32,0.00,40.00,5,1,8,0.00
2013-7-3,90,68,58,60,51,40,88,60,18,0.00,40.00,5,1,9,0.00
2013-7-4,80,62,48,51,45,39,87,57,24,0.00,40.00,8,2,13,0.00
2013-7-5,77,63,52,49,45,40,82,56,28,0.00,40.00,10,2,14,0.00
2013-7-6,79,55,47,52,48,44,92,79,29,0.00,40.00,4,1,6,0.00
2013-7-7,70,56,49,53,50,46,92,82,50,0.00,40.00,6,1,6,0.00
2013-7-8,72,55,48,52,46,-100,92,78,22,0.00,40.00,6,1,7,0.00
2013-7-9,90,63,52,54,50,45,86,65,22,0.00,40.00,8,4,9,0.00
2013-7-10,81,60,52,54,46,-100,91,68,28,0.00,40.00,6,1,8,0.00
2013-7-11,77,58,47,50,44,39,91,65,27,0.00,40.00,6,1,11,0.00
2013-7-12,79,56,45,45,42,39,90,67,25,0.00,40.00,7,2,9,0.00
2013-7-13,81,61,45,45,42,37,88,56,22,0.00,40.00,7,2,10,0.00
2013-7-14,89,68,48,48,44,41,83,48,21,0.00,40.00,8,4,12,0.00
2013-7-15,88,68,50,49,47,44,86,54,24,0.00,40.00,7,3,9,0.00
2013-7-16,85,68,57,54,51,49,83,58,33,0.00,40.00,9,3,13,0.00
2013-7-17,82,66,57,53,51,49,85,62,35,0.00,40.00,10,2,12,0.00
2013-7-18,87,67,48,53,47,42,92,56,21,0.00,40.00,8,2,12,0.00
2013-7-19,87,65,49,54,48,45,91,60,25,0.00,40.00,7,2,11,0.00
2013-7-20,85,60,49,54,50,46,92,72,27,0.00,40.00,11,2,14,0.00
2013-7-21,89,67,51,53,49,42,90,60,22,0.00,40.00,11,4,14,0.00
2013-7-22,90,70,53,53,49,41,88,54,19,0.00,40.00,8,4,11,0.00
2013-7-23,94,71,50,54,48,45,85,51,20,0.00,40.00,9,4,11,0.00
2013-7-24,95,72,56,54,49,40,85,53,16,0.00,40.00,8,2,12,0.00
2013-7-25,94,75,55,53,48,41,83,45,20,0.00,40.00,10,4,12,0.00
2013-7-26,93,73,59,54,49,43,72,46,19,0.00,40.00,9,3,12,0.00
2013-7-27,85,68,51,51,46,42,76,49,23,0.00,40.00,11,3,16,0.00
2013-7-28,81,62,45,50,44,39,93,58,23,0.00,40.00,9,2,12,0.00
2013-7-29,76,57,47,50,48,45,92,75,34,0.00,40.00,6,1,11,0.00
2013-7-30,77,59,49,53,49,46,90,71,34,0.00,40.00,6,2,9,0.00
2013-7-31,68,60,55,53,51,50,86,75,57,0.00,40.00,9,3,12,0.00
2013-8-1,66,59,54,53,50,48,92,73,53,0.00,40.00,6,2,8,0.00
2013-8-2,78,57,53,51,49,46,87,77,32,0.00,40.00,3,1,6,0.00
2013-8-3,82,62,49,51,48,45,89,67,28,0.00,40.00,8,3,11,0.00
2013-8-4,91,65,51,56,50,45,89,64,22,0.00,40.00,10,4,14,0.00
2013-8-5,91,62,51,56,52,47,92,74,22,0.00,40.00,6,1,9,0.00
2013-8-6,93,70,56,56,51,40,88,58,17,0.00,40.00,7,3,10,0.00
2013-8-7,62,58,51,56,50,46,92,75,59,0.00,40.00,5,2,9,0.00
2013-8-8,77,58,50,55,50,47,93,76,39,0.00,40.00,8,1,9,0.00
2013-8-9,82,65,58,65,57,52,91,78,37,0.00,40.00,4,1,7,0.00
2013-8-10,73,60,52,56,53,50,92,77,48,0.00,40.00,6,2,8,0.00
2013-8-11,70,60,55,54,53,50,90,79,49,0.00,40.00,6,2,8,0.00
2013-8-12,68,58,55,52,50,49,84,75,51,0.00,40.00,8,2,10,0.00
2013-8-13,72,50,48,50,34,-100,92,76,39,0.00,40.00,6,2,7,0.00
2013-8-14,88,62,52,53,41,-100,87,60,20,0.00,40.00,6,2,11,0.00
2013-8-15,85,55,54,60,30,-100,88,62,36,0.00,40.00,8,4,10,0.00
2013-8-16,85,65,61,60,45,-100,90,63,32,0.00,40.00,8,2,11,0.00
2013-8-17,85,60,50,55,43,-100,90,65,32,0.00,40.00,6,1,8,0.00
2013-8-18,69,58,52,54,52,49,91,83,54,0.00,40.00,3,1,4,0.00
2013-8-19,88,62,54,54,34,-100,88,55,24,0.00,40.00,8,4,9,0.00
2013-8-20,83,65,51,54,43,-100,90,58,21,0.00,40.00,7,2,11,0.00
2013-8-22,81,72,63,61,57,52,87,63,38,0.00,40.00,4,1,7,0.00
2013-8-23,77,63,56,58,52,50,86,71,41,0.00,40.00,10,2,12,0.00
2013-8-24,75,61,54,53,49,-100,91,70,40,0.00,40.00,7,2,11,0.00
2013-8-25,68,57,53,60,54,50,93,89,61,0.00,40.00,4,1,6,0.00
2013-8-26,80,63,56,55,52,43,91,74,28,0.00,40.00,6,1,14,0.00
2013-8-27,69,55,50,50,49,47,89,81,45,0.00,40.00,6,3,7,0.00
2013-8-28,80,70,64,56,53,50,75,57,35,0.00,40.00,6,2,8,0.00
2013-8-29,81,68,59,59,56,51,90,68,39,0.00,40.00,8,2,12,0.00
2013-8-30,85,65,59,58,56,49,89,76,31,0.00,40.00,4,1,6,0.00
2013-8-31,89,63,53,54,50,-100,91,69,28,0.00,40.00,8,3,12,0.00
2013-9-1,85,59,50,54,49,44,91,75,25,0.00,40.00,6,1,9,0.00
2013-9-2,79,65,58,54,51,46,82,63,33,0.00,40.00,8,3,10,0.00
2013-9-3,81,66,58,52,50,44,81,58,28,0.00,40.00,10,2,12,0.00
2013-9-4,75,64,56,53,51,48,85,65,40,0.00,40.00,5,1,7,0.00
2013-9-5,65,59,53,57,53,50,91,81,62,0.00,40.00,6,1,8,0.00
2013-9-6,74,58,54,55,53,47,92,84,39,0.00,40.00,4,1,6,0.00
2013-9-7,72,57,53,53,48,-100,90,77,46,0.00,40.00,7,3,8,0.00
2013-9-8,75,57,51,55,51,49,92,83,43,0.00,40.00,6,4,8,0.00
2013-9-9,85,61,54,56,52,47,92,77,27,0.00,40.00,8,4,9,0.00
2013-9-10,93,66,54,59,54,51,89,71,28,0.00,40.00,8,5,8,0.00
2013-9-11,76,62,56,59,55,51,91,78,42,0.00,40.00,8,2,8,0.00
2013-9-12,76,60,56,54,53,52,89,79,45,0.00,40.00,5,2,6,0.00
2013-9-13,84,62,54,58,54,51,90,77,35,0.00,40.00,6,2,9,0.00
2013-9-14,76,61,55,58,53,-100,91,79,48,0.00,40.00,8,2,10,0.00
2013-9-15,65,60,57,55,52,47,90,75,52,0.00,40.00,6,2,8,0.00
2013-9-16,70,58,55,51,49,44,83,73,39,0.00,40.00,4,1,5,0.00
2013-9-17,66,58,51,55,51,45,91,79,51,0.00,40.00,8,1,11,0.00
2013-9-18,52,50,48,49,47,45,92,90,83,0.00,40.00,6,1,6,0.00
2013-9-19,69,50,44,48,44,42,92,83,40,0.00,40.00,6,3,8,0.00
2013-9-20,69,53,45,55,47,41,91,83,36,0.00,40.00,6,3,9,0.00
2013-9-21,62,55,52,54,49,-100,91,85,61,0.00,40.00,4,1,6,0.00
2013-9-22,59,55,52,53,49,43,91,83,55,0.00,40.00,9,2,19,0.00
2013-9-23,61,54,49,53,49,46,91,85,60,0.00,40.00,5,1,8,0.00
2013-9-24,60,53,48,51,48,45,90,85,57,0.00,40.00,5,1,8,0.00
2013-9-25,55,49,45,48,44,40,91,84,59,0.00,40.00,6,1,8,0.00
2013-9-26,62,49,44,46,44,41,91,83,47,0.00,40.00,6,1,8,0.00
2013-9-27,57,45,42,50,42,39,91,88,59,0.00,40.00,6,2,9,0.00
2013-9-28,65,53,51,54,43,-100,90,78,59,0.00,40.00,4,2,8,0.00
2013-9-29,57,52,50,52,48,46,91,87,78,0.00,40.00,6,3,8,0.00
2013-9-30,57,52,48,49,44,40,89,76,62,0.00,40.00,6,3,15,0.00
2013-10-1,45,42,42,40,40,39,90,90,89,0.00,40.00,1,0,3,0.00
2013-10-2,54,44,40,43,40,37,92,86,59,0.00,40.00,4,2,5,0.00
2013-10-3,49,42,37,43,39,35,92,89,71,0.00,40.00,4,1,4,0.00
2013-10-4,60,43,39,43,39,37,91,86,47,0.00,40.00,6,3,7,0.00
2013-10-5,70,48,41,46,42,39,92,80,33,0.00,40.00,6,2,8,0.00
2013-10-6,77,51,40,45,40,34,93,75,21,0.00,40.00,7,3,8,0.00
2013-10-7,56,49,43,49,44,41,91,86,70,0.00,40.00,5,2,6,0.00
2013-10-8,52,48,44,47,44,42,91,87,69,0.00,40.00,3,1,4,0.00
2013-10-9,51,44,40,42,40,37,91,86,68,0.00,40.00,6,1,7,0.00
2013-10-10,57,44,39,43,40,37,92,85,52,0.00,40.00,6,2,7,0.00
2013-10-11,54,48,43,43,42,40,90,79,59,0.00,40.00,5,2,6,0.00
2013-10-12,55,42,40,43,36,-100,91,86,54,0.00,40.00,4,1,5,0.00
2013-10-13,53,44,39,42,39,36,91,84,58,0.00,40.00,6,3,7,0.00
2013-10-14,57,44,39,42,39,36,93,83,50,0.00,40.00,8,3,9,0.00
2013-10-15,60,46,39,41,39,36,93,78,40,0.00,40.00,6,4,7,0.00
2013-10-16,65,43,37,42,38,35,92,84,36,0.00,40.00,6,4,8,0.00
2013-10-17,60,43,38,44,39,36,92,88,49,0.00,40.00,7,4,8,0.00
2013-10-18,48,42,40,44,40,38,93,92,87,0.00,40.00,7,4,8,0.00
2013-10-19,69,48,40,49,38,-100,93,77,42,0.00,40.00,7,5,8,0.00
2013-10-20,67,47,42,44,42,40,93,85,43,0.00,40.00,7,4,8,0.00
2013-10-21,72,51,40,50,43,38,92,77,39,0.00,40.00,7,3,8,0.00
2013-10-22,71,52,41,49,45,39,92,78,39,0.00,40.00,7,3,8,0.00
2013-10-23,70,48,41,49,44,38,92,86,41,0.00,40.00,6,3,8,0.00
2013-10-24,64,49,45,49,45,43,91,86,55,0.00,40.00,3,1,4,0.00
2013-10-25,53,49,46,46,45,44,91,87,76,0.00,40.00,4,2,5,0.00
2013-10-26,51,46,47,45,35,-100,88,75,69,0.00,40.00,6,2,8,0.00
2013-10-27,50,47,45,46,43,40,91,86,83,0.00,40.00,4,1,4,0.00
2013-10-28,50,40,36,40,31,-100,92,85,54,0.00,40.00,4,1,5,0.00
2013-10-29,40,34,31,36,31,28,93,90,85,0.00,40.00,6,4,8,0.00
2013-10-30,44,36,31,41,33,29,93,90,86,0.00,40.00,6,4,7,0.00
2013-10-31,58,51,45,50,46,41,90,83,53,0.00,40.00,4,1,5,0.00
2013-11-1,54,52,49,49,47,44,91,85,74,0.00,40.00,7,1,8,0.00
2013-11-2,53,46,40,48,38,-100,91,81,60,0.00,40.00,8,2,9,0.00
2013-11-3,49,42,40,42,39,37,91,88,66,0.00,40.00,3,1,4,0.00
2013-11-4,48,44,41,43,40,36,91,86,62,0.00,40.00,5,1,6,0.00
2013-11-5,52,49,45,48,46,43,91,89,84,0.00,40.00,4,1,6,0.00
2013-11-6,61,54,50,53,50,48,91,86,66,0.00,40.00,3,1,4,0.00
2013-11-7,55,50,43,51,46,40,91,88,78,0.00,40.00,6,2,11,0.00
2013-11-8,50,44,41,42,40,39,91,86,68,0.00,40.00,5,1,6,0.00
2013-11-9,55,44,43,44,36,-100,91,80,54,0.00,40.00,4,2,6,0.00
2013-11-10,63,48,42,47,42,39,92,83,50,0.00,40.00,7,3,8,0.00
2013-11-11,49,45,42,44,42,40,91,89,83,0.00,40.00,6,2,8,0.00
2013-11-12,55,50,45,51,47,43,91,90,87,0.00,40.00,5,1,6,0.00
2013-11-13,53,48,45,46,44,43,91,86,72,0.00,40.00,3,1,4,0.00
2013-11-14,50,46,44,43,41,37,90,84,62,0.00,40.00,3,1,4,0.00
2013-11-15,47,44,41,41,38,35,91,80,67,0.00,40.00,11,2,14,0.00
2013-11-16,51,44,43,43,36,-100,91,78,57,0.00,40.00,11,3,17,0.00
2013-11-17,51,44,38,41,39,36,91,83,61,0.00,40.00,6,2,7,0.00
2013-11-18,48,42,36,46,39,34,92,87,68,0.00,40.00,6,2,7,0.00
2013-11-19,53,49,42,50,46,38,91,88,82,0.00,40.00,6,2,11,0.00
2013-11-20,42,34,29,34,30,26,91,83,62,0.00,40.00,4,1,6,0.00
2013-11-21,42,29,25,27,24,22,91,82,44,0.00,40.00,6,2,6,0.00
2013-11-22,44,32,26,26,24,22,91,76,41,0.00,40.00,8,3,8,0.00
2013-11-23,47,31,23,29,21,-100,90,77,43,0.00,40.00,8,3,9,0.00
2013-11-24,44,32,24,30,27,22,91,83,58,0.00,40.00,6,3,6,0.00
2013-11-25,48,33,26,33,29,24,91,85,53,0.00,40.00,8,4,8,0.00
2013-11-26,50,37,29,39,32,27,93,84,56,0.00,40.00,8,3,9,0.00
2013-11-27,52,37,31,37,32,29,93,85,48,0.00,40.00,6,3,7,0.00
2013-11-28,50,36,30,37,32,28,93,86,60,0.00,40.00,7,4,8,0.00
2013-11-29,45,37,30,39,34,28,93,88,69,0.00,40.00,6,2,6,0.00
2013-11-30,49,40,38,41,34,-100,92,86,74,0.00,40.00,6,1,6,0.00
2013-12-1,56,49,42,48,43,39,91,81,65,0.00,40.00,11,3,21,0.00
2013-12-2,51,44,34,47,40,32,93,87,82,0.00,40.00,8,3,14,0.00
2013-12-3,40,34,26,34,31,23,93,88,69,0.00,40.00,3,1,4,0.00
2013-12-4,38,25,19,25,20,17,90,84,47,0.00,40.00,5,1,6,0.00
2013-12-5,31,25,18,23,20,15,89,81,62,0.00,40.00,6,3,8,0.00
2013-12-6,29,26,23,26,22,17,90,85,79,0.00,40.00,5,2,7,0.00
2013-12-7,29,17,7,17,8,-100,87,74,49,0.00,40.00,6,2,6,0.00
2013-12-8,27,14,4,16,8,-1,86,77,57,0.00,40.00,8,4,8,0.00
2013-12-9,31,16,7,20,12,2,88,82,57,0.00,40.00,8,3,8,0.00
2013-12-10,33,21,13,26,17,9,90,83,67,0.00,40.00,8,3,8,0.00
2013-12-11,40,27,17,28,23,14,93,84,63,0.00,40.00,5,2,5,0.00
2013-12-12,34,29,22,31,27,20,93,91,85,0.00,40.00,6,1,6,0.00
2013-12-13,45,35,32,37,32,30,93,88,67,0.00,40.00,7,2,8,0.00
2013-12-14,44,32,31,36,22,-100,93,90,71,0.00,40.00,4,2,5,0.00
2013-12-15,44,34,31,35,31,29,92,88,66,0.00,40.00,5,1,6,0.00
2013-12-16,40,37,33,35,34,31,93,89,84,0.00,40.00,6,2,6,0.00
2013-12-17,41,32,30,33,30,28,92,91,73,0.00,40.00,4,2,6,0.00
2013-12-18,40,35,31,37,33,29,92,91,87,0.00,40.00,3,1,4,0.00
2013-12-19,36,32,28,33,27,25,91,84,74,0.00,40.00,4,1,5,0.00
2013-12-20,41,37,30,39,33,26,91,87,69,0.00,40.00,6,1,9,0.00
2013-12-21,50,42,41,45,38,-100,91,88,74,0.00,40.00,3,1,3,0.00
2013-12-22,54,44,41,45,41,38,91,90,68,0.00,40.00,6,1,6,0.00
2013-12-23,47,42,38,44,39,35,91,90,89,0.00,40.00,3,1,4,0.00
2013-12-24,43,39,37,37,36,33,91,87,81,0.00,40.00,6,3,7,0.00
2013-12-25,40,36,34,34,32,31,90,86,78,0.00,40.00,4,2,6,0.00
2013-12-26,39,34,31,34,31,29,92,90,83,0.00,40.00,8,4,10,0.00
2013-12-27,42,34,29,35,31,27,92,89,72,0.00,40.00,6,2,6,0.00
2013-12-28,37,35,33,34,30,-100,91,87,86,0.00,40.00,6,2,7,0.00
2013-12-29,38,35,33,32,30,29,88,84,75,0.00,40.00,4,2,6,0.00
2013-12-30,43,36,32,34,32,30,91,85,65,0.00,40.00,3,1,5,0.00
2013-12-31,51,37,33,39,33,31,91,86,51,0.00,40.00,6,2,6,0.00
2014-1-1,43,35,30,36,32,28,92,89,73,0.00,40.00,7,2,8,0.00
2014-1-2,47,38,31,38,33,29,92,84,63,0.00,40.00,4,2,6,0.00